weather.gov     
National Weather Service

Terminal Aerodrome Forecast
NWS Homepage
This page is being discontinued on March 12, 2014.
The same data is available at this site. Please update your bookmarks.
Thank you, and we apologize for the inconvenience.
Please send an email to SR-SRH.Webmaster@noaa.gov with any concerns.


Current Version
Previous Version:    01  02  03  04  05  06  07  08  09  10  11  12  13  14  15  16  17  18  19  20  21  22  23  
[Printable]
337
FTUS44 KMOB 221700 RRA
TAFMOB
TAF
KMOB 221755Z 2218/2318 11011KT P6SM FEW040 FEW070 SCT230
     FM230100 09011G16KT P6SM OVC015
     FM230900 08013G17KT 5SM -SHRA BR OVC007
     FM231100 12013G23KT 4SM TSRA OVC004CB=


U.S. Dept. of Commerce
NOAA National Weather Service
1325 East West Highway
Silver Spring, MD 20910
E-mail: w-nws.webmaster@noaa.gov
Page last modified: May 16, 2007
NATIONAL WEATHER SERVICE: for Safety, for Work, for Fun - FOR LIFE